THORAD AGENA D DEB, 20360

Orbit data source: Space-Track

THORAD AGENA D DEB, 20360 is space debris in SSO originally from a launch on Wed, 08 Apr 1970 UTC launched from the Air Force Western Test Range (AFWTR). Debris objects in space refer to the collection of defunct objects orbiting the Earth. Examples of debris include non-operational satellites, rocket bodies, and fragments generated from explosions, collisions, or faulty payload assembly.

Loading next visibility...
Identifier
20360, 1970-025QF
Orbit
SSO
Country
Flag of USUS
Related business
Manufacturer
Unknown
Mission
Spacecraft
Bus & Motor
Unknown
Mass
Unknown
Launch date (UTC)
1970-04-08 (56 years ago)
Launch vehicle
Unknown
Launch site
Air Force Western Test Range (AFWTR)
Object type
Payload
Rocket body
Debris
Shape & HBR
Unknown shape, 0.1 m
Radar Cross Section
Small (<0.1 m²)

Expand to show TLE details & history
Last TLE update: 1 day ago

TLE from 1 day ago
0 THORAD AGENA D DEB
1 20360U 70025QF  26207.40115613  .00008439  00000-0  41062-2 0  9992
2 20360 100.4199 171.9963 0025730 102.8138  49.7031 14.18311213838045
Epoch: 2026-07-26T09:37Z
TLE epoch observation values (Epoch: 2026-07-26T09:37:39.889Z)
Latitude
26.81109°
Longitude
-91.21532°
Altitude
822.302 km
Speed
7.451 km/s
True Right ascension
23h 49m 12s
True Declination
26° 40' 27"
Sunlit
Object was in daylight at epoch
Visualization orbit readout
Latitude
Unknown
Longitude
Unknown
Altitude
Unknown
Speed
Unknown
Apparent Right ascension
Unknown
Apparent Declination
Unknown
Sunlit
N/A
Visualization observer readout
Local Sidereal Time
00:02:01
Azimuth
Unknown
Elevation
Unknown
Doppler factor
Unknown
Orbital elements
Apogee altitude
846.862 km
Perigee altitude
809.778 km
Semi-major axis
7,206.457 km
Eccentricity
0.00257
Inclination
100.4199°
RAAN
171.9963°
Arg. of periapsis
102.8138°
True anomaly
49.92845°
Mean anomaly
49.7031°
Eccentric anomaly
49.81573°
Mean motion
3.54781 °/min
Orbital period
101.47 mins
BSTAR
0.0041062
Loading maneuver chart data...
Computing Atmospheric mass density...
Loading historical data...
Loading historical data...
Loading historical data...
Loading historical data...
Loading historical data...
Loading historical data...
Loading historical data...

Documentation

Showing up to 5 results
|